RH
31 31 30 30 31 34 31 29 36 39 36 37 38 41 43 42 43 42 41 40 40 44 49 51 52 56 58 62 64 66 68 67 68 71 73 75 74 71 72 70 66 62 58 54 50 44 40 36 31 27 24 22 21 20 20 20 20 19 19 19 19 18 18 18 18 17 17 17 17 17 17 17 19 20 23 24 25 28 30 32 32 32 34 34 35 35
37 38 36 33 29 31 30 28 33 35 36 39 42 44 44 44 45 44 43 43 41 43 47 51 55 59 60 63 68 69 71 73 73 74 73 72 72 71 70 68 65 61 58 55 48 40 35 31 27 24 22 21 20 21 20 20 20 20 20 20 20 20 19 19 19 18 18 17 17 16 16 15 15 15 15 16 16 18 22 25 28 29 30 32 33 33
43 41 38 33 26 25 26 26 30 33 37 40 41 44 45 45 46 46 46 45 44 44 47 51 55 61 61 62 67 69 70 74 73 71 69 66 65 66 66 64 60 57 54 49 39 33 30 27 25 22 21 21 21 22 21 20 20 20 21 21 22 22 21 21 20 20 19 18 18 18 17 16 15 14 15 15 15 15 16 18 22 25 27 28 30 31
43 41 38 31 22 21 25 25 29 35 40 40 41 43 44 44 45 45 46 43 42 44 47 50 53 60 62 61 66 66 63 66 66 65 66 64 62 63 61 57 54 50 47 42 34 29 27 24 23 21 20 21 23 23 22 21 22 23 23 23 24 24 23 22 21 21 20 20 20 20 20 19 20 20 21 21 21 20 18 18 22 25 26 28 29 29
40 38 34 27 20 22 28 28 28 34 39 40 40 42 43 45 43 43 43 39 38 39 42 48 53 58 62 61 64 64 60 60 60 57 59 59 58 60 60 57 52 48 44 40 35 30 28 26 26 24 23 23 25 26 26 26 26 26 27 25 25 24 23 22 21 20 20 20 19 19 18 20 23 25 26 26 25 23 22 21 23 26 28 30 29 29
35 31 25 23 21 22 28 30 30 35 40 41 42 41 42 43 41 40 40 38 41 40 39 45 51 56 62 63 61 60 59 60 58 53 51 51 51 53 56 55 52 50 47 42 37 34 31 30 30 29 27 26 27 29 30 31 31 30 29 27 26 24 22 21 20 19 18 18 18 18 19 22 25 27 29 29 28 26 25 23 23 25 28 29 29 28
31 28 24 22 24 26 31 33 33 36 40 43 45 42 39 38 38 37 35 38 43 44 41 43 47 55 62 61 58 58 58 58 58 55 51 49 51 53 54 53 52 54 54 50 45 41 37 34 33 31 30 28 28 30 32 34 35 33 30 29 28 26 23 21 19 20 20 20 21 23 27 29 30 30 30 31 31 30 29 27 25 24 25 27 28 28
30 31 28 25 27 30 34 36 34 36 40 44 45 41 36 35 34 32 33 39 43 42 42 43 46 52 58 59 59 58 57 57 57 57 55 53 56 58 58 56 55 57 60 59 55 51 45 39 36 35 34 32 30 32 34 36 37 35 32 31 30 28 24 21 22 23 25 25 25 27 30 31 31 31 31 31 31 31 30 30 29 27 25 24 23 23
30 30 30 29 32 33 35 38 35 34 38 43 44 39 35 32 29 28 32 39 44 40 40 44 44 48 56 62 59 56 57 55 52 53 54 55 56 58 60 60 60 60 63 65 62 56 49 42 39 37 36 36 34 34 35 36 37 35 34 32 31 27 22 23 26 27 29 29 27 28 30 30 30 31 31 31 30 30 31 31 31 30 28 25 22 21
30 27 27 29 34 36 38 37 35 33 34 36 37 37 37 33 30 31 35 41 43 40 39 43 43 44 55 61 55 51 55 53 48 49 52 53 54 55 59 61 65 66 65 66 64 59 54 49 44 41 39 39 37 37 36 36 37 36 34 30 26 23 20 22 27 28 30 31 28 29 30 30 32 32 31 31 30 31 32 34 35 34 32 29 26 23
30 26 24 26 31 35 36 35 34 34 31 30 32 35 36 37 36 39 44 44 44 45 46 46 45 45 52 59 54 49 53 51 47 49 52 52 53 54 56 58 60 61 62 66 67 64 62 60 54 48 44 41 39 38 37 35 36 35 31 25 21 19 18 20 24 27 28 29 29 30 31 31 32 32 32 31 32 32 34 37 39 40 38 35 32 31
31 28 26 24 25 29 32 33 32 32 30 28 31 33 33 36 39 45 48 44 44 49 52 51 49 47 50 56 54 50 50 49 46 48 50 52 52 51 52 52 52 55 58 64 67 65 64 64 60 55 49 44 41 38 36 34 32 30 26 21 18 17 16 19 23 25 26 28 30 31 31 31 31 32 32 33 35 35 36 39 41 42 42 42 41 41
36 32 27 25 25 25 29 32 29 30 30 28 32 35 37 43 48 52 53 47 45 49 51 52 52 48 47 48 47 47 49 50 49 47 48 49 49 48 49 50 51 52 53 56 60 59 60 61 61 57 50 44 41 38 34 32 29 27 23 19 16 15 15 19 23 25 27 29 30 30 30 31 31 32 33 35 38 39 39 41 43 43 43 44 45 45
44 39 30 28 30 26 29 34 31 31 30 29 34 37 43 53 57 61 61 55 54 55 54 54 52 49 48 45 43 44 46 49 49 47 46 47 46 45 48 50 51 51 49 51 54 54 54 55 51 48 43 41 42 40 35 33 30 27 25 22 17 14 16 22 24 25 28 31 31 31 31 31 32 33 35 38 40 41 43 44 44 44 45 45 46 45
46 44 36 32 32 28 30 36 35 35 34 33 35 37 42 53 58 60 61 58 57 57 53 50 50 50 49 47 47 45 44 47 48 47 47 46 45 44 46 48 51 52 50 49 51 52 51 48 42 41 40 41 44 43 38 34 31 29 27 23 16 13 19 25 25 25 28 31 33 33 32 33 36 38 40 43 44 45 46 47 46 46 45 46 46 46
42 44 41 33 30 27 28 33 34 35 37 37 37 38 41 48 55 56 56 56 53 49 48 46 46 50 48 47 50 47 44 48 49 48 47 44 41 40 42 43 46 50 50 47 47 49 50 47 42 41 42 43 45 44 39 37 33 30 28 21 13 13 20 25 25 25 27 29 31 32 32 34 39 43 45 46 46 47 47 48 48 47 46 46 46 49
39 44 43 33 28 27 24 27 30 31 36 40 38 39 41 43 48 50 49 51 48 45 46 44 44 49 48 47 50 47 45 49 50 49 47 44 40 37 38 39 41 46 50 48 47 47 47 46 44 42 44 44 43 42 40 38 34 30 27 19 12 14 19 24 25 23 25 28 28 30 31 34 38 42 45 46 45 46 46 46 48 47 48 48 49 53
33 41 43 35 32 32 25 24 29 28 30 36 36 39 43 42 47 49 47 49 51 50 50 46 44 46 47 47 47 45 45 48 50 49 47 47 44 41 39 39 40 42 45 48 49 48 46 44 43 43 43 42 40 38 38 36 33 29 25 18 13 15 18 22 25 24 24 27 27 27 29 32 36 40 43 45 46 47 47 46 46 47 48 50 51 53
30 36 41 38 35 37 32 27 28 27 25 29 32 37 39 38 45 48 46 49 51 51 52 48 43 42 44 48 46 43 45 46 49 51 49 49 49 47 45 43 42 42 41 44 48 50 48 45 43 43 43 41 39 37 35 34 31 27 24 18 15 17 19 20 25 26 25 26 27 28 30 31 33 37 41 42 43 45 46 46 47 50 53 54 55 57
28 31 38 39 35 36 38 34 32 30 28 26 29 35 38 36 39 38 37 42 45 48 52 52 49 45 46 49 47 44 46 48 50 53 50 48 49 49 48 47 46 43 40 41 45 49 51 48 45 43 41 40 39 37 35 34 31 26 24 20 16 19 21 20 23 27 27 27 27 30 33 33 32 34 38 40 40 41 43 45 47 50 54 56 58 60
31 29 32 36 35 35 37 39 38 36 34 31 30 36 42 42 40 38 38 43 47 52 57 58 57 55 49 47 44 42 44 46 49 51 49 47 49 50 49 47 44 43 42 42 43 46 48 48 46 43 40 40 39 38 37 34 30 26 24 20 16 18 21 21 24 28 28 28 28 29 33 34 34 35 36 37 38 40 42 46 48 49 50 50 51 52
36 33 30 33 35 35 34 35 34 34 37 39 38 41 47 49 48 46 49 53 53 53 56 55 56 56 50 43 41 42 43 43 44 45 47 47 47 48 48 45 43 42 42 44 44 44 45 46 47 45 43 42 41 40 39 35 30 28 25 21 18 17 17 20 25 28 29 29 28 28 31 34 35 36 35 36 37 39 41 44 47 48 48 48 48 49
39 38 33 31 33 33 33 31 28 31 40 43 44 48 51 51 51 50 52 55 53 51 54 54 52 54 51 45 42 42 40 39 39 40 42 44 44 45 47 46 43 42 41 43 45 46 46 47 47 47 45 46 45 43 43 38 31 28 27 22 20 18 15 19 26 28 29 30 27 28 30 33 34 35 35 36 36 38 40 42 44 45 45 46 47 48
40 41 37 35 34 32 35 36 32 35 41 42 43 45 42 41 46 48 51 51 46 45 48 48 50 51 49 45 41 38 36 37 38 39 39 41 42 44 47 48 45 42 40 42 44 46 48 48 49 49 48 49 49 48 48 42 34 30 29 25 22 19 14 16 23 27 28 29 27 27 30 31 33 34 35 36 37 37 38 40 42 43 43 43 42 42
40 42 42 41 39 37 40 44 42 39 40 40 43 43 38 39 41 42 46 46 42 43 44 44 48 48 44 43 43 42 42 42 41 40 40 38 39 42 44 45 43 42 41 42 42 44 46 46 47 48 49 50 51 51 48 43 35 31 31 28 24 20 14 13 21 27 28 28 27 28 30 31 31 33 34 36 37 36 37 38 41 43 43 42 39 36
41 44 46 44 44 47 48 49 47 44 42 42 43 42 41 43 43 43 47 49 48 52 51 49 52 52 47 46 47 47 46 43 39 37 35 34 36 39 40 39 40 40 40 40 40 41 43 45 45 47 50 51 51 49 45 41 35 32 33 31 25 21 17 14 19 26 27 28 28 28 30 31 30 31 33 34 36 36 36 36 38 41 42 41 40 35
46 46 47 46 46 47 47 48 48 46 45 44 44 43 41 44 47 48 50 51 53 55 53 51 52 49 47 48 48 47 45 41 40 38 36 36 36 38 38 36 37 36 35 37 39 40 45 48 47 48 50 50 48 45 41 39 36 33 33 32 28 25 21 17 20 25 26 28 29 28 29 31 30 31 32 33 36 37 37 36 36 37 39 39 38 33
56 50 48 47 44 44 44 46 49 48 45 44 44 44 44 47 49 48 47 50 53 52 51 54 50 43 44 49 49 47 46 47 46 43 40 38 35 35 36 35 35 35 36 39 40 43 48 51 52 53 51 48 44 41 40 39 37 34 34 33 31 28 23 19 23 27 27 29 30 29 30 31 30 30 31 32 34 36 37 35 32 32 34 34 31 26
63 58 54 51 48 48 47 44 46 47 46 45 45 45 47 48 48 45 42 46 50 48 48 52 50 44 44 47 47 46 46 47 46 41 37 36 34 35 36 35 36 37 39 41 42 44 48 50 52 56 55 50 46 43 41 39 37 36 35 34 33 30 25 22 25 29 29 30 31 30 30 30 30 30 30 31 32 33 35 34 28 27 29 29 25 21
63 64 63 58 55 57 54 47 45 45 46 46 44 45 46 45 44 42 40 41 44 44 43 45 45 42 41 42 42 40 39 39 39 38 36 36 36 38 40 40 40 41 42 43 43 44 46 48 51 56 58 55 50 45 42 40 38 36 34 35 34 31 28 26 27 30 30 29 30 31 30 30 30 30 30 30 31 32 34 32 26 22 24 24 21 19
60 64 66 62 60 64 62 56 53 52 52 49 44 42 43 42 43 44 45 45 45 45 43 43 43 41 41 42 39 34 33 34 36 38 39 40 41 44 45 44 44 44 44 44 45 46 47 48 51 54 57 57 53 48 44 42 39 36 35 36 35 32 29 27 27 30 31 29 31 32 31 31 31 31 31 31 32 33 32 30 26 22 21 21 19 18
57 61 63 61 60 64 63 59 58 56 53 52 50 47 45 45 47 50 51 52 50 47 46 46 45 43 44 45 41 35 34 34 35 36 40 43 45 46 49 49 50 50 47 44 46 48 49 50 52 54 54 55 54 52 49 46 42 40 39 40 38 34 30 27 27 31 32 31 32 33 32 32 32 32 31 30 31 33 33 33 31 26 24 24 21 19
56 57 59 59 59 63 64 60 56 53 52 56 58 54 50 51 54 54 55 57 57 54 52 51 48 46 46 45 42 41 40 38 37 36 37 42 44 46 50 52 54 53 49 45 45 48 50 52 55 56 54 54 55 56 53 49 45 44 44 43 42 37 31 28 29 33 33 32 33 33 33 34 34 33 32 29 29 31 33 35 34 29 26 26 23 21
57 55 57 58 57 62 65 58 53 54 58 61 60 54 52 54 56 56 56 59 62 60 59 56 51 48 48 44 41 42 41 39 39 38 39 42 44 47 49 48 49 50 49 47 47 47 50 53 55 55 53 54 56 58 55 52 50 48 46 45 44 40 33 31 32 33 33 33 35 35 35 35 34 33 32 29 28 30 33 34 32 27 26 27 25 23
55 55 56 56 55 60 61 57 59 63 61 57 54 51 50 52 54 56 59 64 66 64 62 59 54 52 50 44 40 39 39 42 45 44 43 44 44 47 48 46 47 50 50 50 50 51 52 54 54 52 51 52 55 56 55 54 55 52 48 48 47 41 37 36 35 35 35 35 37 36 35 34 32 30 28 27 26 28 31 30 27 26 27 28 27 25
56 57 56 54 54 57 58 58 62 63 56 50 49 49 50 52 54 56 60 67 67 61 59 58 56 54 51 46 43 41 40 45 51 49 47 48 49 49 49 48 50 51 50 52 53 54 54 53 51 50 50 52 55 55 54 56 55 52 50 51 47 42 41 40 37 36 37 37 37 36 33 32 30 27 26 24 23 25 28 28 28 29 30 30 30 29
53 55 55 54 54 55 57 58 57 55 51 48 46 47 48 51 53 53 56 63 64 58 57 58 57 56 54 50 48 46 45 47 52 52 51 52 54 53 52 51 51 51 52 54 54 55 55 53 51 50 51 54 57 56 56 56 54 51 51 49 45 43 43 40 35 35 37 37 37 36 33 30 29 28 26 24 23 25 27 29 32 34 34 32 33 32
53 54 57 57 56 54 54 55 55 54 52 48 45 45 46 48 51 51 50 54 56 54 54 57 58 58 56 54 52 52 54 57 59 58 55 55 56 56 53 50 49 50 53 55 55 56 55 54 52 52 54 56 58 57 56 55 52 51 49 45 42 42 42 38 35 34 35 37 36 35 33 30 29 28 27 25 25 25 28 31 33 35 36 34 33 32
56 58 60 59 58 57 54 54 56 54 49 46 45 44 44 46 47 48 51 54 53 51 52 54 56 56 56 56 56 57 62 66 66 63 58 56 57 56 53 49 48 51 54 55 56 56 53 51 51 52 53 55 56 57 56 54 52 49 45 41 40 41 40 37 35 34 33 34 34 33 32 31 29 29 28 27 26 26 28 31 32 33 35 33 31 31
57 59 60 60 61 61 58 58 57 51 48 49 47 43 42 43 42 47 57 60 53 48 49 49 50 51 53 55 58 61 66 68 67 64 61 60 61 59 56 52 50 52 54 55 56 55 52 50 50 51 53 54 55 56 55 52 49 44 40 38 38 38 36 34 34 34 32 32 32 31 32 32 31 30 28 28 27 26 28 31 32 33 32 29 29 32
60 61 61 61 62 63 62 60 57 52 50 50 47 42 41 42 45 51 57 56 49 46 46 46 47 49 51 53 56 60 63 64 64 64 62 62 63 63 60 57 54 55 55 54 53 53 52 53 53 53 54 53 52 51 49 46 45 42 39 38 37 34 32 32 33 34 32 31 31 31 31 32 32 30 29 28 28 27 28 30 31 31 29 26 27 31
63 64 64 62 62 64 64 62 59 55 51 46 44 43 43 46 52 54 50 46 44 45 45 45 46 47 47 49 52 54 57 60 62 63 62 62 63 64 63 61 59 58 56 55 54 55 56 56 56 55 54 52 50 47 44 43 43 42 39 38 36 34 32 33 35 35 33 32 31 31 31 31 31 30 29 29 29 28 28 30 32 31 30 29 30 29
63 64 66 64 63 64 64 62 59 56 50 44 43 46 48 51 55 52 46 45 46 45 45 46 47 47 47 48 50 51 53 56 59 61 62 62 64 65 65 64 62 61 60 58 58 58 58 58 58 56 54 51 49 46 43 42 43 41 39 38 37 35 35 36 36 36 34 31 31 31 32 31 31 31 30 30 30 29 28 30 33 34 33 33 32 29
61 63 65 64 63 63 62 60 55 50 47 44 44 48 49 49 49 48 47 48 48 46 47 47 47 48 48 49 51 52 52 54 56 59 61 62 63 65 66 67 66 65 65 65 63 61 60 60 58 55 52 50 49 47 43 41 41 39 37 37 36 35 36 37 37 36 34 31 30 31 31 31 31 32 32 32 31 30 30 31 33 34 34 34 32 29
59 61 62 60 59 58 55 53 49 45 44 44 45 46 47 45 45 46 47 47 48 50 50 49 48 48 48 49 50 50 51 53 54 56 59 61 62 63 66 68 69 69 70 70 68 66 63 61 58 56 53 50 49 48 44 41 39 37 36 36 35 34 36 37 36 36 33 30 29 31 31 31 33 34 34 33 32 31 31 31 31 32 32 32 31 29
56 56 57 58 58 55 49 47 47 46 45 45 44 44 46 45 45 46 46 46 47 49 49 49 48 47 46 47 48 48 49 52 53 55 57 59 61 62 64 66 69 71 72 72 69 68 66 64 61 59 57 54 51 49 47 42 39 36 34 34 34 33 34 35 34 34 32 29 29 31 32 32 34 35 34 33 32 31 31 31 31 30 30 30 29 28
57 55 56 59 59 56 51 49 48 46 45 46 46 46 46 46 45 45 46 46 46 46 47 48 48 47 45 45 45 46 47 50 52 54 55 57 61 63 64 66 68 70 72 73 71 68 67 67 64 62 60 58 54 50 49 45 41 36 34 34 34 33 33 33 33 32 31 29 30 32 32 33 34 35 33 32 32 31 31 31 31 30 28 27 25 24
60 57 58 59 58 54 51 48 46 45 44 45 47 47 47 46 46 45 45 45 45 44 45 46 47 48 47 45 45 45 46 47 50 53 55 58 61 64 65 67 68 69 72 75 74 70 67 66 65 62 61 60 56 51 49 47 44 39 34 33 34 34 32 31 31 31 30 29 30 32 33 33 34 34 33 31 31 31 31 31 31 30 27 24 23 22
60 60 60 59 56 53 48 45 45 47 46 45 45 46 46 45 46 46 46 47 46 46 46 47 48 49 49 49 48 48 48 48 49 52 55 57 59 62 65 68 69 70 72 75 76 74 69 66 64 62 61 60 58 54 52 49 47 43 38 34 33 34 33 31 30 31 30 29 30 32 32 33 34 34 33 31 30 31 32 32 31 30 27 25 24 24
59 60 59 58 57 53 47 44 48 50 48 44 43 44 44 44 45 45 46 47 48 48 48 48 49 50 50 50 50 49 49 49 49 51 55 58 59 61 64 68 70 72 73 75 76 75 73 69 65 62 61 61 59 58 55 52 49 46 43 37 34 33 33 32 32 32 31 29 30 31 32 33 33 34 32 31 31 32 33 33 32 31 28 27 26 27
54 55 57 58 57 53 47 46 50 51 47 44 43 43 44 46 47 47 47 48 47 48 48 48 48 49 49 49 49 48 47 48 49 50 53 58 61 62 64 67 71 73 75 77 77 77 76 72 67 64 63 62 61 59 58 56 52 49 47 43 38 34 33 34 34 33 32 29 29 30 32 32 33 34 33 32 32 33 33 33 33 31 30 29 29 30